Zapata, TX

5:08 PM CDT on June 23, 2017 (GMT -0500)
Zapata

Weather History for KAPY - January, 2014

Change the Weather History Date:

Monday, January 6, 2014

  Actual Average (KLRD) Record (KLRD)
Temperature  
Mean Temperature 40 °F -  
Max Temperature 42 °F 66 °F 90 °F (1989)
Min Temperature 37 °F 45 °F 25 °F (1910)
Degree Days  
Heating Degree Days 26    
Moisture  
Dew Point 16 °F    
Average Humidity 39    
Maximum Humidity 44    
Minimum Humidity 35    
Precipitation  
Precipitation 0.00 in - - ()
Sea Level Pressure  
Sea Level Pressure 30.62 in    
Wind  
Wind Speed 7 mph (NNE)    
Max Wind Speed 12 mph    
Max Gust Speed 17 mph    
Visibility 10 miles    
Events      
Averages and records for this station are not official NWS values.
T = Trace of Precipitation, MM = Missing Value Source: NWS Daily Summary

Daily Weather History Graph

Daily Weather History Graph

Search for Another Location

Airport or City:

Trip Planner

Search our weather history database for the weather conditions in past years. The results will help you decide how hot, cold, wet, or windy it might be!

Date:

Astronomy

Jan. 06, 2014 Rise Set
Actual Time 7:27 AM CST 5:58 PM CST
Civil Twilight 7:01 AM CST 6:24 PM CST
Nautical Twilight 6:33 AM CST 6:52 PM CST
Astronomical Twilight 6:04 AM CST 7:21 PM CST
Moon 11:18 AM CST (1/6) 11:55 PM CST (1/6)
Length of Visible Light 11h 22m
Length of Day
10h 31m
Waxing Crescent, 35% of the Moon is Illuminated
Jan 6
Waxing Crescent
Jan 7
First Quarter
Jan 15
Full
Jan 23
Last Quarter
Jan 30
New

Hourly Weather History & Observations

Time (CST) Temp. Windchill Dew Point Humidity Pressure Visibility Wind Dir Wind Speed Gust Speed Precip Events Conditions
3:15 AM 42.8 °F 38.6 °F 18.1 °F 37% 30.46 in 10.0 mi North 6.9 mph 16.1 mph N/A   Clear
3:35 AM 42.6 °F 37.2 °F 16.5 °F 35% 30.47 in 10.0 mi NNE 9.2 mph 16.1 mph N/A   Clear
3:55 AM 42.3 °F 37.9 °F 17.1 °F 36% 30.48 in 10.0 mi NNE 6.9 mph - N/A   Clear
4:15 AM 41.9 °F 35.4 °F 16.7 °F 36% 30.48 in 10.0 mi NNE 11.5 mph - N/A   Clear
4:35 AM 41.9 °F 35.9 °F 16.9 °F 36% 30.49 in 10.0 mi NNE 10.4 mph 17.3 mph N/A   Clear
4:55 AM 41.4 °F 36.8 °F 17.4 °F 38% 30.50 in 10.0 mi NNE 6.9 mph - N/A   Clear
5:15 AM 41.0 °F 37.1 °F 18.5 °F 40% 30.51 in 10.0 mi NNE 5.8 mph - N/A   Clear
5:35 AM 40.5 °F 35.1 °F 16.5 °F 38% 30.52 in 10.0 mi North 8.1 mph - N/A   Clear
5:55 AM 40.1 °F 36.1 °F 16.0 °F 38% 30.52 in 10.0 mi North 5.8 mph - N/A   Clear
6:15 AM 39.6 °F 33.5 °F 16.3 °F 39% 30.53 in 10.0 mi North 9.2 mph - N/A   Clear
6:35 AM 39.2 °F 33.6 °F 16.3 °F 40% 30.54 in 10.0 mi North 8.1 mph - N/A   Clear
6:55 AM 38.7 °F 32.9 °F 16.5 °F 41% 30.55 in 10.0 mi North 8.1 mph - N/A   Clear
7:15 AM 38.5 °F 34.1 °F 16.5 °F 41% 30.57 in 10.0 mi North 5.8 mph - N/A   Clear
7:35 AM 38.3 °F 34.8 °F 16.7 °F 42% 30.58 in 10.0 mi North 4.6 mph - N/A   Clear
7:55 AM 38.3 °F 32.5 °F 16.7 °F 42% 30.60 in 10.0 mi North 8.1 mph - N/A   Clear
8:15 AM 38.3 °F 32.5 °F 16.3 °F 41% 30.62 in 10.0 mi North 8.1 mph - N/A   Clear
8:35 AM 38.3 °F 31.9 °F 16.2 °F 41% 30.63 in 10.0 mi North 9.2 mph - N/A   Clear
8:55 AM 38.3 °F 32.5 °F 16.9 °F 42% 30.63 in 10.0 mi North 8.1 mph - N/A   Clear
9:15 AM 38.3 °F 31.4 °F 17.2 °F 43% 30.64 in 10.0 mi North 10.4 mph - N/A   Clear
9:35 AM 38.3 °F 30.9 °F 17.4 °F 43% 30.66 in 10.0 mi North 11.5 mph - N/A   Clear
9:55 AM 38.5 °F 32.1 °F 17.1 °F 42% 30.67 in 10.0 mi North 9.2 mph - N/A   Clear
10:15 AM 38.7 °F 31.8 °F 16.2 °F 40% 30.68 in 10.0 mi NNE 10.4 mph 16.1 mph N/A   Clear
10:35 AM 39.2 °F 33.0 °F 16.5 °F 40% 30.68 in 10.0 mi NNE 9.2 mph - N/A   Clear
10:55 AM 39.4 °F 32.7 °F 16.2 °F 39% 30.68 in 10.0 mi NNE 10.4 mph - N/A   Clear
11:15 AM 39.4 °F 33.2 °F 16.9 °F 40% 30.68 in 10.0 mi North 9.2 mph - N/A   Clear
11:35 AM 39.4 °F 32.7 °F 15.6 °F 38% 30.68 in 10.0 mi NNE 10.4 mph - N/A   Clear
11:55 AM 39.9 °F 34.5 °F 16.0 °F 38% 30.67 in 10.0 mi NNE 8.1 mph - N/A   Clear
12:15 PM 39.7 °F 33.2 °F 16.2 °F 38% 30.66 in 10.0 mi North 10.4 mph - N/A   Clear
12:35 PM 39.4 °F 35.2 °F 16.2 °F 39% 30.66 in 10.0 mi NNE 5.8 mph - N/A   Clear
12:55 PM 39.6 °F 33.0 °F 15.8 °F 38% 30.63 in 10.0 mi North 10.4 mph - N/A   Clear
1:15 PM 39.4 °F 34.5 °F 15.3 °F 38% 30.63 in 10.0 mi NNE 6.9 mph - N/A   Clear
1:35 PM 40.8 °F 35.6 °F 14.7 °F 35% 30.64 in 10.0 mi North 8.1 mph - N/A   Clear
1:55 PM 40.5 °F 35.1 °F 14.7 °F 35% 30.62 in 10.0 mi NNE 8.1 mph - N/A   Clear
2:15 PM 40.3 °F 34.9 °F 15.1 °F 36% 30.61 in 10.0 mi NNE 8.1 mph - N/A   Clear
2:35 PM 40.6 °F 36.7 °F 15.1 °F 35% 30.63 in 10.0 mi North 5.8 mph - N/A   Clear
2:55 PM 40.6 °F 36.0 °F 15.4 °F 36% 30.62 in 10.0 mi NE 6.9 mph - N/A   Clear
3:15 PM 40.5 °F - 15.6 °F 37% 30.63 in 10.0 mi Calm Calm - N/A   Clear
3:35 PM 40.1 °F - 14.2 °F 35% 30.63 in 10.0 mi North - - N/A   Clear
3:55 PM 40.1 °F 38.0 °F 14.2 °F 35% 30.63 in 10.0 mi NE 3.5 mph - N/A   Clear
4:15 PM 40.3 °F 35.5 °F 14.9 °F 36% 30.62 in 10.0 mi NE 6.9 mph - N/A   Clear
4:35 PM 40.3 °F 36.3 °F 15.4 °F 37% 30.63 in 10.0 mi NE 5.8 mph - N/A   Clear
4:55 PM 40.1 °F - 15.8 °F 37% 30.63 in 10.0 mi Calm Calm - N/A   Clear
5:15 PM 40.1 °F 38.0 °F 15.8 °F 37% 30.62 in 10.0 mi NE 3.5 mph - N/A   Clear
5:35 PM 39.7 °F 37.6 °F 14.9 °F 36% 30.63 in 10.0 mi NE 3.5 mph - N/A   Clear
5:55 PM 39.6 °F - 15.4 °F 38% 30.63 in 10.0 mi Calm Calm - N/A   Clear
6:15 PM 39.4 °F 37.2 °F 14.7 °F 37% 30.62 in 10.0 mi ENE 3.5 mph - N/A   Clear
6:35 PM 39.4 °F 37.2 °F 15.4 °F 38% 30.63 in 10.0 mi NE 3.5 mph - N/A   Clear
6:55 PM 39.4 °F - 15.3 °F 38% 30.65 in 10.0 mi Calm Calm - N/A   Scattered Clouds
7:15 PM 39.4 °F - 15.3 °F 38% 30.66 in 10.0 mi Calm Calm - N/A   Scattered Clouds
7:35 PM 39.4 °F - 15.6 °F 38% 30.66 in 10.0 mi Calm Calm - N/A   Mostly Cloudy
7:55 PM 39.4 °F - 16.0 °F 39% 30.66 in 10.0 mi Calm Calm - N/A   Mostly Cloudy
8:15 PM 39.4 °F 37.2 °F 18.0 °F 42% 30.65 in 10.0 mi East 3.5 mph - N/A   Light Drizzle
8:35 PM 38.8 °F 36.5 °F 16.5 °F 40% 30.66 in 10.0 mi East 3.5 mph - N/A   Mostly Cloudy
8:55 PM 38.7 °F - 17.1 °F 42% 30.68 in 10.0 mi Calm Calm - N/A   Clear
9:35 PM 38.3 °F 35.9 °F 17.6 °F 43% 30.67 in 10.0 mi East 3.5 mph - N/A   Scattered Clouds
9:55 PM 38.3 °F - 17.1 °F 42% 30.67 in 10.0 mi Calm Calm - N/A   Scattered Clouds
10:15 PM 38.1 °F 35.7 °F 17.6 °F 44% 30.67 in 10.0 mi ESE 3.5 mph - N/A   Scattered Clouds
10:35 PM 37.9 °F 34.4 °F 17.8 °F 44% 30.66 in 10.0 mi ESE 4.6 mph - N/A   Mostly Cloudy
10:55 PM 37.8 °F 34.2 °F 17.8 °F 44% 30.65 in 10.0 mi East 4.6 mph - N/A   Overcast
11:15 PM 37.6 °F 34.0 °F 15.4 °F 41% 30.64 in 10.0 mi East 4.6 mph - N/A   Overcast
11:35 PM 37.4 °F 32.8 °F 14.4 °F 39% 30.63 in 10.0 mi ENE 5.8 mph - N/A   Overcast
11:55 PM 37.0 °F 32.4 °F 14.9 °F 40% 30.63 in 10.0 mi East 5.8 mph - N/A   Overcast